Regional Weather Roundup
Issued by NWS

Home | Current Version | Previous Version | Text Only | Print | Product List | Glossary Off
Versions: 1 2 3 4 5 6 7 8 9 10 11 12 13 14 15 16 17 18 19 20 21 22 23 24 25 26 27 28 29 30 31 32 33 34 35 36 37 38 39 40 41 42 43 44 45 46 47 48 49 50

000
ASUS43 KFSD 211602
RWRSD

WEATHER ROUNDUP FOR SOUTH DAKOTA
NATIONAL WEATHER SERVICE SIOUX FALLS SD
1000 AM CST SUN DEC 21 2014

NOTE: "FAIR" INDICATES FEW OR NO CLOUDS BELOW 12,000 FEET WITH NO
SIGNIFICANT WEATHER AND/OR OBSTRUCTIONS TO VISIBILITY.


SDZ001>005-009-010-012>017-211700-
NORTHWEST AND NORTH CENTRAL SOUTH DAKOTA

CITY           SKY/WX    TMP DP  RH WIND       PRES   REMARKS
BUFFALO          N/A     30  23  75 SE5       29.40F WCI  25
FAITH            N/A     28  25  88 S10       29.50F WCI  19
MOBRIDGE       SUNNY     27  24  89 SE7       29.55F WCI  19
$$

SDZ012>016-024>037-041>051-057-063-072>074-211700-
SOUTHWEST AND SOUTH CENTRAL SOUTH DAKOTA

CITY           SKY/WX    TMP DP  RH WIND       PRES   REMARKS
RAPID CTY ARPT SUNNY     31  25  78 E6        29.48F WCI  25
PIERRE         SUNNY     26  24  92 SE8       29.57F WCI  18
CUSTER         MOSUNNY   34  25  69 W8        29.49F WCI  27
ELLSWORTH AFB  SUNNY     39  27  62 SW8       29.46F
PHILIP         SUNNY     26  23  88 CALM      29.53F
PINE RIDGE     SUNNY     35  25  66 VRB5      29.55F
WINNER         FAIR      36  26  67 SW20      29.59F
$$

SDZ004>011-016>023-039-040-211700-
NORTHEAST SOUTH DAKOTA

CITY           SKY/WX    TMP DP  RH WIND       PRES   REMARKS
ABERDEEN       FOG       31  30  96 S14       29.67S VSB 3/4 WCI  21
WATERTOWN      FOG       30  29  96 S15       29.68F VSB 1/2 WCI  19
SISSETON         N/A     31  30  96 S13       29.69F WCI  21
$$

SDZ017-020-022-023-036>040-048>070-211700-
SOUTHEAST SOUTH DAKOTA

CITY           SKY/WX    TMP DP  RH WIND       PRES   REMARKS
SIOUX FALLS    FOG       33  33 100 S12       29.74F VSB 1/8 WCI  24
HURON          FOG       30  30 100 S9        29.68F VSB 3/4 WCI  22
MITCHELL       CLOUDY    32  31  96 SE16      29.70F FOG     WCI  21
YANKTON        CLOUDY    32  30  93 SE8       29.75F WCI  25
$$

ABBREVIATIONS USED IN REMARKS
   TC - TEMPERATURE IN CELSIUS
  WCI - WIND CHILL INDEX
   HX - HEAT INDEX
  VSB - VISIBILITY




USA.gov is the U.S. government's official web portal to all federal, state and local government web resources and services.